TimeAKST,TemperatureF,Dew PointF,Humidity,Sea Level PressureIn,VisibilityMPH,Wind Direction,Wind SpeedMPH,Gust SpeedMPH,PrecipitationIn,Events,Conditions,WindDirDegrees,DateUTC
12:53 AM,21.9,19.9,92,30.29,10.0,Calm,Calm,-,N/A,,Clear,0,2013-03-05 09:53:00
1:53 AM,21.0,19.0,92,30.28,10.0,Calm,Calm,-,N/A,,Clear,0,2013-03-05 10:53:00
3:53 AM,19.9,18.0,92,30.24,10.0,Calm,Calm,-,N/A,,Clear,0,2013-03-05 12:53:00
4:53 AM,19.9,18.0,92,30.23,10.0,Calm,Calm,-,N/A,,Clear,0,2013-03-05 13:53:00
5:53 AM,19.9,18.0,92,30.21,10.0,Calm,Calm,-,N/A,,Clear,0,2013-03-05 14:53:00
6:53 AM,19.9,17.1,89,30.20,10.0,Calm,Calm,-,N/A,,Clear,0,2013-03-05 15:53:00
7:53 AM,21.0,18.0,88,30.18,10.0,Calm,Calm,-,N/A,,Clear,0,2013-03-05 16:53:00
8:53 AM,26.1,21.0,81,30.17,10.0,Calm,Calm,-,N/A,,Partly Cloudy,0,2013-03-05 17:53:00
9:53 AM,28.9,23.0,78,30.15,10.0,Calm,Calm,-,N/A,,Clear,0,2013-03-05 18:53:00
10:53 AM,32.0,19.9,61,30.13,10.0,WSW,3.5,-,N/A,,Clear,250,2013-03-05 19:53:00
11:53 AM,35.1,18.0,50,30.12,10.0,WSW,4.6,-,N/A,,Clear,250,2013-03-05 20:53:00
12:53 PM,36.0,17.1,46,30.10,10.0,WSW,9.2,-,N/A,,Clear,240,2013-03-05 21:53:00
1:53 PM,37.0,17.1,44,30.08,10.0,WSW,5.8,-,N/A,,Clear,240,2013-03-05 22:53:00
2:53 PM,37.0,17.1,44,30.05,10.0,WSW,6.9,-,N/A,,Clear,240,2013-03-05 23:53:00
3:53 PM,36.0,19.9,52,30.04,10.0,WSW,8.1,-,N/A,,Partly Cloudy,240,2013-03-06 00:53:00
4:53 PM,35.1,19.0,52,30.02,10.0,SSW,3.5,-,N/A,,Partly Cloudy,210,2013-03-06 01:53:00
5:53 PM,30.9,17.1,57,30.01,10.0,WNW,3.5,-,N/A,,Partly Cloudy,290,2013-03-06 02:53:00
6:53 PM,27.0,21.0,78,30.01,10.0,Calm,Calm,-,N/A,,Partly Cloudy,0,2013-03-06 03:53:00
7:53 PM,28.0,19.9,72,30.00,10.0,Calm,Calm,-,N/A,,Partly Cloudy,0,2013-03-06 04:53:00
8:53 PM,25.0,19.9,81,29.99,10.0,Calm,Calm,-,N/A,,Partly Cloudy,0,2013-03-06 05:53:00
9:53 PM,24.1,19.9,84,29.99,10.0,Calm,Calm,-,N/A,,Partly Cloudy,0,2013-03-06 06:53:00
10:53 PM,23.0,19.0,85,29.99,10.0,Calm,Calm,-,N/A,,Partly Cloudy,0,2013-03-06 07:53:00
11:53 PM,24.1,19.9,84,29.99,10.0,Calm,Calm,-,N/A,,Partly Cloudy,0,2013-03-06 08:53:00